Printer-friendly version
Follow the MPC on Twitter Follow the MPC on Facebook The MPC blog
Minor Planet Center

MPEC 2001-K36 : 2001 KP41

The following Minor Planet Electronic Circular may be linked-to from your own Web pages, but must not otherwise be redistributed electronically.

A form allowing access to any MPEC is at the bottom of this page.


Read MPEC 2001-K35 Read MPEC 2001-K37


M.P.E.C. 2001-K36                                Issued 2001 May 25, 22:54 UT

     The Minor Planet Electronic Circulars contain information on unusual
         minor planets and routine data on comets.  They are published
   on behalf of Commission 20 of the International Astronomical Union by the
          Minor Planet Center, Smithsonian Astrophysical Observatory,
                          Cambridge, MA 02138, U.S.A.

             Prepared using the Tamkin Foundation Computer Network

                              MPC@CFA.HARVARD.EDU
          URL http://cfa-www.harvard.edu/iau/mpc.html  ISSN 1523-6714

                                   2001 KP41

Observations:
     K01K41P* C2001 05 23.38698 19 00 21.59 +04 55 24.6          16.5        704
     K01K41P  C2001 05 23.39808 19 00 22.86 +04 55 34.4          16.9        704
     K01K41P  C2001 05 23.40918 19 00 24.09 +04 55 43.8          17.2        704
     K01K41P  C2001 05 23.42028 19 00 25.36 +04 55 53.3          16.9        704
     K01K41P  C2001 05 23.43138 19 00 26.59 +04 56 02.5          16.8        704
     K01K41P  C2001 05 23.97753 19 01 31.87 +05 03 43.4                      620
     K01K41P  C2001 05 23.98404 19 01 32.38 +05 03 45.7          16.3 R      046
     K01K41P  C2001 05 23.98652 19 01 32.66 +05 03 47.9                      046
     K01K41P  C2001 05 23.98764 19 01 32.78 +05 03 48.8                      046
     K01K41P  C2001 05 23.98875 19 01 32.92 +05 03 49.6                      046
     K01K41P  C2001 05 23.98999 19 01 33.06 +05 03 50.7                      046
     K01K41P  C2001 05 23.99356 19 01 33.75 +05 03 55.8                      620
     K01K41P  C2001 05 24.01199 19 01 35.72 +05 04 13.2                      620
     K01K41P  C2001 05 24.03315 19 01 37.99 +05 04 26.8          16.6 V      557
     K01K41P  C2001 05 24.04183 19 01 38.96 +05 04 34.6                      118
     K01K41P  C2001 05 24.04887 19 01 39.75 +05 04 40.6                      118
     K01K41P  C2001 05 24.04916 19 01 39.82 +05 04 40.3                      557
     K01K41P  C2001 05 24.05017 19 01 39.91 +05 04 41.7          16.1 R      118
     K01K41P  C2001 05 24.34181 19 02 14.53 +05 08 49.3          15.2 R      649
     K01K41P  C2001 05 24.35323 19 02 15.82 +05 08 58.8          15.9 R      649
     K01K41P  C2001 05 24.36532 19 02 17.18 +05 09 09.1          15.9 R      649
     K01K41P  C2001 05 24.36922 19 02 17.86 +05 09 13.2          16.6        919
     K01K41P  C2001 05 24.37146 19 02 18.11 +05 09 15.4          16.6        919
     K01K41P  C2001 05 24.37421 19 02 18.42 +05 09 17.4          16.7        919
     K01K41P 1C2001 05 24.37965 19 02 19.13 +05 09 18.8                      658
     K01K41P 1C2001 05 24.38361 19 02 19.59 +05 09 22.1                      658
     K01K41P 1C2001 05 24.39022 19 02 20.35 +05 09 27.7                      658
     K01K41P  C2001 05 24.43260 19 02 25.02 +05 10 07.0          16.7 V      926
     K01K41P  C2001 05 24.43435 19 02 25.21 +05 10 08.3          16.7 V      926
     K01K41P  C2001 05 24.43609 19 02 25.40 +05 10 09.8          16.4 V      926
     K01K41P  C2001 05 24.43780 19 02 25.59 +05 10 11.3          17.2 V      926
     K01K41P  C2001 05 24.44142 19 02 26.00 +05 10 14.3          17.1 V      926
     K01K41P  C2001 05 24.92280 19 03 23.67 +05 16 53.4          16.0 R      046
     K01K41P  C2001 05 24.92400 19 03 23.80 +05 16 54.4                      046
     K01K41P  C2001 05 24.92550 19 03 23.98 +05 16 55.6                      046
     K01K41P  C2001 05 24.92694 19 03 24.15 +05 16 56.9                      046
     K01K41P  C2001 05 24.93602 19 03 25.28 +05 17 04.4          16.5 R      163
     K01K41P  C2001 05 24.94263 19 03 26.00 +05 17 09.5                      163
     K01K41P  C2001 05 24.94414 19 03 26.14 +05 17 10.7                      163
     K01K41P  C2001 05 24.94708 19 03 26.50 +05 17 13.0                      163
     K01K41P  C2001 05 24.96506 19 03 28.60 +05 17 28.6                      163
     K01K41P  C2001 05 24.97861 19 03 30.28 +05 17 41.2                      946
     K01K41P  C2001 05 24.98195 19 03 30.62 +05 17 43.9          15.6 V      511
     K01K41P  C2001 05 24.98957 19 03 31.43 +05 17 49.8                      595
     K01K41P  C2001 05 24.99307 19 03 31.79 +05 17 52.6                      595
     K01K41P  C2001 05 24.99438 19 03 32.08 +05 17 54.7          16.3 R      946
     K01K41P  C2001 05 25.00240 19 03 32.85 +05 18 00.4          16.3 V      595
     K01K41P  C2001 05 25.01348 19 03 34.16 +05 18 09.2          16.8        636
     K01K41P  C2001 05 25.01626 19 03 34.49 +05 18 12.2          16.9        636
     K01K41P  C2001 05 25.01904 19 03 34.85 +05 18 13.8          16.6        636
     K01K41P  C2001 05 25.02182 19 03 35.12 +05 18 15.8          16.4        636
     K01K41P  C2001 05 25.02970 19 03 35.93 +05 18 23.1          16.2 R      118
     K01K41P  C2001 05 25.03367 19 03 36.37 +05 18 26.4                      118
     K01K41P  C2001 05 25.03552 19 03 36.91 +05 18 29.6                      946
     K01K41P  C2001 05 25.04004 19 03 37.10 +05 18 31.7                      118
     K01K41P  C2001 05 25.05213 19 03 38.48 +05 18 43.9          16.6 R      629
     K01K41P  C2001 05 25.05462 19 03 38.75 +05 18 45.2                      629
     K01K41P  C2001 05 25.05733 19 03 39.02 +05 18 46.1                      629
     K01K41P  C2001 05 25.36814 19 04 15.91 +05 23 07.3          15.8 R      649
     K01K41P  C2001 05 25.37143 19 04 16.46 +05 23 11.2          16.3        704
     K01K41P  C2001 05 25.37483 19 04 16.67 +05 23 12.9          15.8 R      649
     K01K41P  C2001 05 25.38251 19 04 17.72 +05 23 20.4          17.2        704
     K01K41P  C2001 05 25.38900 19 04 18.27 +05 23 24.7          15.9 R      649
     K01K41P 1C2001 05 25.39101 19 04 18.86 +05 23 23.9                      658
     K01K41P 1C2001 05 25.39345 19 04 19.14 +05 23 26.0                      658
     K01K41P  C2001 05 25.39351 19 04 19.00 +05 23 29.0          17.2        704
     K01K41P 1C2001 05 25.39740 19 04 19.58 +05 23 29.2                      658
     K01K41P  C2001 05 25.40461 19 04 20.20 +05 23 38.4          17.0        704
     K01K41P  C2001 05 25.41565 19 04 21.48 +05 23 47.7          16.7        704

Observer details:
046 Klet.  Observers M. Tichy, M. Kocer.  0.57-m f/5.2 reflector + CCD.
118 Modra.  Observers A. Galad, P. Koleny, J. Toth.  0.6-m f/5.5
    reflector + CCD.
163 Roeser Observatory, Luxembourg.  Observer M. Dawson.  0.3-m f/5
    Schmidt-Cassegrain + CCD.
511 Haute Provence.  Observer R. Apitzsch.  0.8-m reflector + CCD.
557 Ondrejov.  Observers P. Pravec, P. Kusnirak.  0.65-m f/3.6 reflector + CCD.
595 Farra d'Isonzo.  Observers G. Lombardi, E. Pettarin.  0.40-m f/4.5
    reflector + CCD.
620 Observatorio Astronomico de Mallorca.  Observers S. Sanchez, M. Blasco.
    0.30-m f/3.3 Schmidt-Cassegrain + CCD.
629 JATE Observatory, Szeged.  Observer K. Sarneczky.  0.28-m
    Schmidt-Cassegrain + CCD.
636 Essen.  Observer A. Knoefel.  0.318-m f/5.7 reflector + CCD.
649 Powell Observatory, Louisburg.  Observers D. Trentman, K. Smalley.
    Measurer K. Smalley.  0.75-m Newtonian + CCD.
658 National Research Council of Canada.  Observer D. D. Balam.  1.82-m
    Plaskett reflector + CCD.
704 Lincoln Laboratory ETS, New Mexico.  Observers M. Blythe, F. Shelly,
    M. Bezpalko, R. Huber, L. Manguso, S. Adams.  Measurers J. Stuart,
    R. Sayer, J. B. Evans, H. Viggh.  1.0-m f/2.15 reflector + CCD.
919 Desert Beaver Observatory.  Observer K. W. Yeung.  0.45-m reflector + CCD.
926 Tenagra II Observatory.  Observer M. Schwartz.  Measurer P. R. Holvorcem.
    0.5-m f/10 Ritchey-Chretien + CCD.
946 Ametlla de Mar.  Observers J. Nomen, S. Sanchez.  0.40-m f/2.0
    Schmidt + CCD.

Orbital elements:
2001 KP41
Epoch 2001 May 11.0 TT = JDT 2452040.5                  Spahr
M 346.79689              (2000.0)            P               Q
n   0.19011304     Peri.  154.06556     +0.52406820     +0.84536434
a   2.9954456      Node   147.24647     -0.81089754     +0.53242986
e   0.5719032      Incl.   11.02853     -0.26037992     +0.04333093
P   5.18           H   15.5           G   0.15
From 69 observations 2001 May 23-25.

Ephemeris:
2001 KP41                a,e,i = 3.00, 0.57, 11                  q = 1.2823
Date    TT    R. A. (2000) Decl.     Delta      r     Elong.  Phase     V
2001 05 21    18 55.67   +04 21.5    0.580    1.447   128.5    33.2    16.5
2001 05 31    19 15.46   +06 38.5    0.508    1.399   130.8    33.3    16.2
2001 06 10    19 35.86   +08 31.3    0.446    1.359   132.9    33.2    15.8
2001 06 20    19 57.00   +09 40.0    0.394    1.326   135.4    32.6    15.5
2001 06 30    20 18.97   +09 40.3    0.352    1.302   138.6    31.1    15.1
2001 07 10    20 41.66   +08 10.0    0.320    1.287   143.2    28.2    14.8
2001 07 20    21 04.36   +04 55.4    0.298    1.282   149.6    23.6    14.5
2001 07 30    21 26.08   +00 03.7    0.290    1.288   157.9    17.3    14.3
2001 08 09    21 45.82   -05 45.0    0.295    1.304   167.4     9.7    14.1
2001 08 19    22 02.75   -11 30.5    0.317    1.329   177.3     2.0    13.9
2001 08 29    22 16.92   -16 18.6    0.355    1.363   172.4     5.6    14.4
2001 09 08    22 29.00   -19 41.7    0.409    1.404   163.4    11.8    15.0
2001 09 18    22 39.77   -21 39.3    0.478    1.452   155.1    16.9    15.6
2001 09 28    22 50.11   -22 23.9    0.561    1.506   147.5    20.9    16.2
2001 10 08    23 00.60   -22 12.4    0.658    1.564   140.5    24.0    16.7
2001 10 18    23 11.51   -21 20.3    0.768    1.625   133.8    26.3    17.2
2001 10 28    23 23.02   -19 59.6    0.890    1.689   127.4    27.9    17.6
2001 11 07    23 35.13   -18 19.6    1.024    1.755   121.2    28.9    18.0
2001 11 17    23 47.76   -16 27.2    1.169    1.823   115.0    29.4    18.4
2001 11 27    00 00.89   -14 27.0    1.324    1.891   109.0    29.6    18.8
2001 12 07    00 14.42   -12 22.6    1.487    1.960   103.0    29.3    19.1
2001 12 17    00 28.28   -10 16.6    1.658    2.030    97.1    28.8    19.4
2001 12 27    00 42.45   -08 10.8    1.834    2.099    91.2    27.9    19.7
2002 01 06    00 56.84   -06 06.8    2.014    2.168    85.3    26.9    19.9
2002 01 16    01 11.44   -04 05.6    2.197    2.236    79.4    25.6    20.1
2002 01 26    01 26.21   -02 08.1    2.381    2.304    73.6    24.2    20.3
2002 02 05    01 41.11   -00 15.3    2.563    2.372    67.7    22.6    20.5
2002 02 15    01 56.12   +01 32.5    2.743    2.438    61.9    20.9    20.7

Timothy B. Spahr             (C) Copyright 2001 MPC           M.P.E.C. 2001-K36

Read MPEC 2001-K35 Read MPEC 2001-K37


MPEC number:

Enter an MPEC number in one of the following forms:

  • 1997-B01 (the full form)
  • J97B01 (the packed version of the full form)
  • B01 (the abbreviated form)

Valid HTML 4.01!